Regional Weather Roundup
Issued by NWS Albany, NY

Current Version | Previous Version | Graphics & Text | Print | Product List | Glossary Off
Versions: 1 2 3 4 5 6 7 8 9 10 11 12 13 14 15 16 17 18 19 20 21 22 23 24 25 26 27 28 29 30 31 32 33 34 35 36 37 38 39 40 41 42 43 44 45 46 47 48 49 50

000
ASUS41 KALY 011210
RWRALY

NEW YORK STATE HOURLY WEATHER ROUNDUP
NATIONAL WEATHER SERVICE ALBANY NY
700 AM EST SUN FEB 01 2015

NOTE: "FAIR" INDICATES FEW OR NO CLOUDS BELOW 12,000 FEET WITH NO
SIGNIFICANT WEATHER AND/OR NO OBSTRUCTIONS TO VISIBILITY.

NYZ032-033-038>043-046>054-057>066-NYZ062>081-011300-
EAST


CITY           SKY/WX    TMP DP  RH WIND       PRES   REMARKS
ALBANY         FLURRIES  14   7  73 S7        30.15R WCI   4
GLENS FALLS    CLOUDY     1  -4  79 CALM      30.15R
POUGHKEEPSIE   MOCLDY    20   9  62 SW6       30.16S WCI  12
NEWBURGH       MOCLDY    18  10  73 W9        30.16S WCI   6
MONTGOMERY     MOCLDY    14   6  70 SW7       30.16R WCI   4
WHITE PLAINS   MOCLDY    19   8  62 SW5       30.17S WCI  12
ISLIP          PTCLDY    10   1  67 CALM      30.20R
NEW YORK CITY  MOCLDY    24  11  57 SW3       30.22S
CENTRAL PARK   CLOUDY    24  10  55 CALM      30.22F
$$

NYZ005>009-017-018-044>046-055-056-011300-
CENTRAL


CITY           SKY/WX    TMP DP  RH WIND       PRES   REMARKS
FULTON         CLOUDY    17  10  74 N8G17     30.21R WCI   7
SYRACUSE       LGT SNOW  20  18  92 NW7       30.19R FOG     WCI  11
ROME           CLOUDY    12   9  87 CALM      30.19R
ELMIRA         CLOUDY    20  15  81 SW3       30.15S
BINGHAMTON     CLOUDY    20  16  84 W7        30.07S WCI  11
MONTICELLO     CLOUDY    18  14  86 W7        30.09R WCI   8
$$

NYZ026>034-041>043-011300-
NORTH


CITY           SKY/WX    TMP DP  RH WIND       PRES   REMARKS
WATERTOWN      MOCLDY    10   3  73 NE12      30.26R WCI  -5
FORT DRUM      NOT AVBL
MASSENA        PTCLDY     2  -3  80 W7        30.28R WCI -11
SARANAC LAKE   MOCLDY     4   0  83 CALM      30.05R
PLATTSBURGH    MOCLDY     8   1  73 NW8       30.20R WCI  -4
$$

NYZ001>004-010>016-019>021-011300-
WEST


CITY           SKY/WX    TMP DP  RH WIND       PRES   REMARKS
NIAGARA FALLS  FLURRIES  25  17  72 N12       30.20R WCI  14
BUFFALO        FLURRIES  26  19  74 N9        30.18R WCI  17
DUNKIRK        CLOUDY    27  25  92 CALM      30.19R
JAMESTOWN      CLOUDY    21  19  93 CALM      30.11R
WELLSVILLE     CLOUDY    22  20  92 NW5       30.09S FOG     WCI  16
ROCHESTER      FLURRIES  23  18  81 NE15      30.21R WCI  10
PENN YAN       LGT SNOW  27  21  78 W6        30.15R WCI  20
$$

             KEY
       WCI = WIND CHILL INDEX
       VSB = VISIBILITY
       HX  = HEAT INDEX
$$


USA.gov is the U.S. government's official web portal to all federal, state and local government web resources and services.